Home   Weather   Pago Pago   Past weeks

Flag for American Samoa Past Weather in Pago Pago, American Samoa — Yesterday and Last 2 Weeks

Now
85 °F

Partly cloudy.


Feels Like: 99 °F
Forecast: 80 / 88 °F
Wind: 3 mph from North

Location: Pago Pago / Int. Airp.

Current Time: Jan 20, 2017 at 9:39:31 pm

Latest Report: Jan 20, 2017 at 8:51 pm


Visibility: 12 mi

Pressure: 29.78 "Hg

Humidity: 85%

Dew Point: 80 °F

Location of Pago PagoLocation

Past Weather in Pago Pago — Graph

°F

Pago Pago Temperature Yesterday

Maximum temperature yesterday: 90 °F (at 1:51 pm)
Minimum temperature yesterday: 81 °F (at 11:50 pm)
Average temperature yesterday: 85 °F

High & Low Weather Summary for the Past Weeks

 TemperatureHumidityPressure
High90 °F (Jan 7, 1:52 pm)100% (Jan 9, 5:50 am)29.91 "Hg (Jan 9, 5:50 am)
Low77 °F (Jan 9, 5:50 am)59% (Jan 18, 10:50 am)29.64 "Hg (Jan 17, 3:50 pm)
Average84 °F83%29.78 "Hg
* Reported Jan 5 7:50 pm — Jan 20 7:50 pm, Pago Pago, Weather by CustomWeather, © 2017

Note: Actual official high and low records may vary slightly from our data, if they occured in-between our weather recording intervals... More about our weather records

Advertising

Pago Pago Weather History for the Previous 24 Hours

Scroll right to see more
 ConditionsComfort  
Time TempWeatherWind HumidityBarometerVisibility
7:50 pm
Fri, Jan 20
85 °FPartly cloudy.No wind83%29.77 "Hg12 mi
5:50 pm86 °FBroken clouds.8 mph79%29.73 "Hg12 mi
4:52 pm88 °FBroken clouds.13 mph75%29.71 "Hg12 mi
3:50 pm89 °FBroken clouds.8 mph76%29.70 "Hg12 mi
2:52 pm88 °FBroken clouds.9 mph76%29.73 "Hg12 mi
1:53 pm89 °FBroken clouds.10 mph76%29.75 "Hg12 mi
12:50 pm88 °FCloudy.9 mph76%29.77 "Hg12 mi
11:50 am88 °FMore clouds than sun.8 mph78%29.79 "Hg12 mi
10:51 am88 °FMore clouds than sun.10 mph75%29.80 "Hg12 mi
9:50 am88 °FMore clouds than sun.5 mph79%29.81 "Hg12 mi
8:55 am87 °FBroken clouds.6 mph78%29.80 "Hg12 mi
6:50 am80 °FBroken clouds.No wind97%29.80 "Hg12 mi
5:50 am79 °FPartly cloudy.3 mph100%29.78 "Hg11 mi
4:50 am79 °FOvercast.3 mph97%29.77 "Hg10 mi
3:50 am79 °FOvercast.No wind97%29.75 "Hg10 mi
2:50 am81 °FOvercast.No wind94%29.76 "Hg10 mi
1:50 am80 °FOvercast.2 mph97%29.78 "Hg10 mi
12:50 am80 °FSprinkles. Mostly cloudy.No wind95%29.79 "Hg8 mi
11:50 pm
Thu, Jan 19
81 °FSprinkles. Mostly cloudy.3 mph94%29.81 "Hg6 mi
10:50 pm82 °FSprinkles. Mostly cloudy.5 mph92%29.80 "Hg6 mi
9:52 pm83 °FPartly cloudy.2 mph86%29.80 "Hg12 mi
Weather by CustomWeather, © 2017

See weather overviewHow to use our weather pages